N461VZ KBHM-KHSV

Flight info

Callsign N461VZ
Flight time 0h 44m
Altitude 3000
Route DCT
Aircraft C172/L-SDFGR/1200

Departure

Time 2026-04-21 00:00
Airport Birmingham-Shuttlesworth International Airport (KBHM)

Arrival

Time 2026-04-21 00:45
Airport Huntsville International Airport (KHSV)
Time Latitude Longitude Altitude Speed Heading
2026-04-20 23:43 33.56630 -86.74327 639 ft 0 kts 327°
2026-04-20 23:52 33.56635 -86.74332 639 ft 5 kts 327°
2026-04-20 23:52 33.56636 -86.74387 639 ft 11 kts 276°
2026-04-20 23:52 33.56640 -86.74506 638 ft 15 kts 269°
2026-04-20 23:52 33.56668 -86.74592 641 ft 9 kts
2026-04-20 23:53 33.56733 -86.74590 642 ft 11 kts
2026-04-20 23:53 33.56795 -86.74527 644 ft 14 kts 54°
2026-04-20 23:53 33.56858 -86.74418 643 ft 18 kts 55°
2026-04-20 23:53 33.56937 -86.74279 642 ft 22 kts 55°
2026-04-20 23:54 33.57031 -86.74123 640 ft 25 kts 63°
2026-04-20 23:54 33.57127 -86.73951 642 ft 24 kts 56°
2026-04-20 23:54 33.57204 -86.73828 644 ft 9 kts 20°
2026-04-20 23:54 33.57212 -86.73827 644 ft 0 kts 326°
2026-04-20 23:56 33.57213 -86.73827 644 ft 2 kts 323°
2026-04-20 23:56 33.57260 -86.73852 645 ft 0 kts 326°
2026-04-20 23:59 33.57271 -86.73861 648 ft 9 kts 323°
2026-04-20 23:59 33.57335 -86.73923 647 ft 12 kts 295°
2026-04-20 23:59 33.57334 -86.73943 647 ft 1 kts 231°
2026-04-20 23:59 33.57230 -86.74124 645 ft 51 kts 236°
2026-04-21 00:00 33.56954 -86.74579 712 ft 76 kts 235°
2026-04-21 00:00 33.56639 -86.75106 925 ft 75 kts 236°
2026-04-21 00:00 33.56357 -86.75625 1144 ft 74 kts 239°
2026-04-21 00:00 33.55974 -86.75962 1358 ft 80 kts 165°
2026-04-21 00:01 33.55485 -86.75505 1533 ft 87 kts 143°
2026-04-21 00:01 33.55049 -86.75107 1818 ft 79 kts 143°
2026-04-21 00:01 33.54578 -86.74689 1968 ft 86 kts 144°
2026-04-21 00:01 33.54104 -86.74253 2211 ft 85 kts 140°
2026-04-21 00:02 33.53651 -86.73782 2377 ft 88 kts 130°
2026-04-21 00:02 33.53498 -86.73085 2544 ft 89 kts 73°
2026-04-21 00:02 33.53775 -86.72371 2691 ft 94 kts 58°
2026-04-21 00:02 33.54071 -86.71705 2941 ft 90 kts 60°
2026-04-21 00:03 33.54339 -86.71043 3118 ft 93 kts 60°
2026-04-21 00:03 33.54672 -86.70252 3080 ft 114 kts 60°
2026-04-21 00:03 33.55019 -86.69388 3070 ft 116 kts 62°
2026-04-21 00:03 33.55376 -86.68502 3038 ft 118 kts 60°
2026-04-21 00:04 33.55810 -86.67669 3012 ft 118 kts 53°
2026-04-21 00:04 33.56267 -86.66842 2994 ft 119 kts 53°
2026-04-21 00:04 33.56716 -86.66023 2989 ft 114 kts 54°
2026-04-21 00:04 33.57129 -86.65267 2976 ft 106 kts 53°
2026-04-21 00:05 33.57522 -86.64544 2977 ft 102 kts 54°
2026-04-21 00:05 33.57904 -86.63831 2984 ft 102 kts 53°
2026-04-21 00:05 33.58300 -86.63102 2923 ft 110 kts 53°
2026-04-21 00:05 33.58752 -86.62293 2762 ft 122 kts 53°
2026-04-21 00:06 33.59352 -86.61605 2592 ft 122 kts 13°
2026-04-21 00:06 33.60165 -86.61790 2428 ft 122 kts 337°
2026-04-21 00:06 33.60964 -86.62164 2259 ft 124 kts 338°
2026-04-21 00:06 33.61752 -86.62526 2237 ft 113 kts 338°
2026-04-21 00:07 33.62427 -86.62827 2368 ft 95 kts 337°
2026-04-21 00:07 33.63026 -86.62936 2497 ft 84 kts 350°
2026-04-21 00:07 33.63586 -86.63011 2629 ft 79 kts 350°
2026-04-21 00:07 33.64112 -86.63084 2764 ft 74 kts 349°
2026-04-21 00:08 33.64597 -86.63152 2900 ft 68 kts 348°
2026-04-21 00:08 33.65094 -86.63222 2988 ft 81 kts 349°
2026-04-21 00:08 33.65707 -86.63307 2998 ft 94 kts 351°
2026-04-21 00:08 33.66376 -86.63400 2997 ft 101 kts 351°
2026-04-21 00:09 33.67094 -86.63502 2996 ft 107 kts 351°
2026-04-21 00:09 33.67842 -86.63607 2998 ft 109 kts 351°
2026-04-21 00:09 33.68596 -86.63714 2992 ft 107 kts 351°
2026-04-21 00:09 33.69327 -86.63818 2991 ft 104 kts 351°
2026-04-21 00:10 33.70043 -86.63920 2991 ft 103 kts 351°
2026-04-21 00:10 33.70751 -86.64021 2989 ft 102 kts 351°
2026-04-21 00:10 33.71452 -86.64122 2978 ft 101 kts 351°
2026-04-21 00:10 33.72148 -86.64223 2982 ft 100 kts 351°
2026-04-21 00:11 33.72830 -86.64321 2984 ft 100 kts 351°
2026-04-21 00:11 33.73522 -86.64420 2981 ft 100 kts 350°
2026-04-21 00:11 33.74216 -86.64520 2982 ft 101 kts 350°
2026-04-21 00:11 33.74909 -86.64619 2968 ft 98 kts 351°
2026-04-21 00:12 33.75580 -86.64716 2981 ft 96 kts 350°
2026-04-21 00:12 33.76246 -86.64811 2975 ft 96 kts 350°
2026-04-21 00:12 33.76919 -86.64908 2982 ft 99 kts 351°
2026-04-21 00:12 33.77608 -86.65007 2984 ft 101 kts 351°
2026-04-21 00:13 33.78299 -86.65107 2986 ft 101 kts 351°
2026-04-21 00:13 33.78999 -86.65207 2980 ft 101 kts 351°
2026-04-21 00:13 33.79693 -86.65307 2976 ft 100 kts 351°
2026-04-21 00:13 33.80381 -86.65405 2979 ft 99 kts 351°
2026-04-21 00:14 33.81059 -86.65503 2980 ft 98 kts 350°
2026-04-21 00:14 33.81736 -86.65601 2978 ft 98 kts 351°
2026-04-21 00:14 33.82411 -86.65698 2981 ft 97 kts 351°
2026-04-21 00:14 33.83086 -86.65795 2980 ft 99 kts 351°
2026-04-21 00:15 33.83768 -86.65893 2982 ft 99 kts 350°
2026-04-21 00:15 33.84450 -86.65991 2979 ft 98 kts 351°
2026-04-21 00:15 33.85122 -86.66088 2978 ft 98 kts 351°
2026-04-21 00:15 33.85803 -86.66186 2976 ft 98 kts 351°
2026-04-21 00:16 33.86480 -86.66283 2971 ft 98 kts 350°
2026-04-21 00:16 33.87155 -86.66381 2977 ft 98 kts 350°
2026-04-21 00:16 33.87833 -86.66479 2975 ft 98 kts 351°
2026-04-21 00:16 33.88515 -86.66577 2976 ft 98 kts 350°
2026-04-21 00:17 33.89194 -86.66674 2970 ft 98 kts 351°
2026-04-21 00:17 33.89864 -86.66771 2976 ft 98 kts 351°
2026-04-21 00:17 33.90545 -86.66869 2966 ft 99 kts 351°
2026-04-21 00:17 33.91220 -86.66966 2989 ft 96 kts 350°
2026-04-21 00:18 33.91879 -86.67062 3005 ft 95 kts 350°
2026-04-21 00:18 33.92541 -86.67158 3012 ft 97 kts 350°
2026-04-21 00:18 33.93216 -86.67255 3017 ft 98 kts 350°
2026-04-21 00:18 33.93900 -86.67354 3014 ft 99 kts 350°
2026-04-21 00:19 33.94584 -86.67452 3015 ft 99 kts 350°
2026-04-21 00:19 33.95266 -86.67550 3014 ft 98 kts 350°
2026-04-21 00:19 33.95941 -86.67648 3012 ft 98 kts 350°
2026-04-21 00:19 33.96623 -86.67746 3015 ft 99 kts 351°
2026-04-21 00:20 33.97308 -86.67845 3014 ft 99 kts 350°
2026-04-21 00:20 33.97996 -86.67944 3018 ft 100 kts 350°
2026-04-21 00:20 33.98682 -86.68043 3016 ft 101 kts 351°
2026-04-21 00:20 33.99378 -86.68144 3019 ft 100 kts 351°
2026-04-21 00:21 34.00077 -86.68245 3016 ft 101 kts 351°
2026-04-21 00:21 34.00779 -86.68346 3019 ft 102 kts 351°
2026-04-21 00:21 34.01480 -86.68447 3018 ft 100 kts 350°
2026-04-21 00:21 34.01940 -86.68513 3017 ft 100 kts 350°
2026-04-21 00:22 34.02635 -86.68614 3015 ft 101 kts 350°
2026-04-21 00:22 34.03330 -86.68715 3017 ft 100 kts 350°
2026-04-21 00:22 34.04019 -86.68814 3013 ft 100 kts 350°
2026-04-21 00:22 34.04704 -86.68914 3013 ft 99 kts 349°
2026-04-21 00:23 34.05387 -86.69012 3011 ft 99 kts 350°
2026-04-21 00:23 34.06068 -86.69111 3009 ft 99 kts 350°
2026-04-21 00:23 34.06750 -86.69209 3009 ft 99 kts 350°
2026-04-21 00:23 34.07422 -86.69306 3012 ft 98 kts 350°
2026-04-21 00:24 34.08101 -86.69405 3008 ft 98 kts 350°
2026-04-21 00:24 34.08779 -86.69503 3011 ft 98 kts 350°
2026-04-21 00:24 34.09458 -86.69601 3009 ft 98 kts 350°
2026-04-21 00:24 34.10132 -86.69699 3011 ft 97 kts 350°
2026-04-21 00:25 34.10805 -86.69797 3010 ft 97 kts 350°
2026-04-21 00:25 34.11480 -86.69894 3011 ft 98 kts 351°
2026-04-21 00:25 34.12161 -86.69993 3009 ft 99 kts 351°
2026-04-21 00:25 34.12842 -86.70092 3013 ft 98 kts 350°
2026-04-21 00:26 34.13522 -86.70190 3012 ft 99 kts 350°
2026-04-21 00:26 34.14203 -86.70289 3012 ft 98 kts 351°
2026-04-21 00:26 34.14876 -86.70386 3014 ft 99 kts 351°
2026-04-21 00:26 34.15564 -86.70486 3014 ft 100 kts 350°
2026-04-21 00:27 34.16252 -86.70586 3011 ft 99 kts 351°
2026-04-21 00:27 34.16936 -86.70685 3013 ft 99 kts 350°
2026-04-21 00:27 34.17616 -86.70783 3011 ft 98 kts 350°
2026-04-21 00:27 34.18287 -86.70881 3010 ft 96 kts 350°
2026-04-21 00:28 34.18958 -86.70979 3011 ft 97 kts 350°
2026-04-21 00:28 34.19621 -86.71075 3011 ft 97 kts 350°
2026-04-21 00:28 34.20292 -86.71172 3009 ft 97 kts 350°
2026-04-21 00:28 34.20964 -86.71270 3008 ft 97 kts 350°
2026-04-21 00:29 34.21636 -86.71367 3010 ft 98 kts 350°
2026-04-21 00:29 34.22312 -86.71465 3011 ft 97 kts 349°
2026-04-21 00:29 34.22986 -86.71563 3007 ft 98 kts 350°
2026-04-21 00:29 34.23665 -86.71662 3014 ft 98 kts 350°
2026-04-21 00:30 34.24343 -86.71760 3014 ft 98 kts 350°
2026-04-21 00:30 34.25027 -86.71860 3016 ft 100 kts 350°
2026-04-21 00:30 34.25720 -86.71960 3015 ft 100 kts 350°
2026-04-21 00:30 34.26406 -86.72060 3010 ft 98 kts 350°
2026-04-21 00:31 34.27081 -86.72163 3009 ft 97 kts 346°
2026-04-21 00:31 34.27717 -86.72385 3010 ft 95 kts 341°
2026-04-21 00:31 34.28358 -86.72604 3006 ft 96 kts 341°
2026-04-21 00:31 34.28988 -86.72816 3008 ft 95 kts 341°
2026-04-21 00:32 34.29629 -86.73028 3010 ft 96 kts 342°
2026-04-21 00:32 34.30274 -86.73240 3005 ft 96 kts 342°
2026-04-21 00:32 34.30915 -86.73450 3005 ft 95 kts 342°
2026-04-21 00:32 34.31553 -86.73659 3006 ft 95 kts 342°
2026-04-21 00:33 34.32193 -86.73867 3007 ft 96 kts 342°
2026-04-21 00:33 34.32837 -86.74078 3010 ft 96 kts 342°
2026-04-21 00:33 34.33482 -86.74288 3013 ft 97 kts 342°
2026-04-21 00:33 34.34131 -86.74500 3012 ft 97 kts 341°
2026-04-21 00:34 34.34785 -86.74714 3014 ft 98 kts 342°
2026-04-21 00:34 34.35446 -86.74929 3010 ft 98 kts 342°
2026-04-21 00:34 34.36102 -86.75144 3015 ft 98 kts 342°
2026-04-21 00:34 34.36773 -86.75362 3012 ft 100 kts 342°
2026-04-21 00:35 34.37442 -86.75581 3017 ft 99 kts 342°
2026-04-21 00:35 34.38102 -86.75796 3016 ft 99 kts 342°
2026-04-21 00:35 34.38770 -86.76015 3018 ft 100 kts 342°
2026-04-21 00:35 34.39440 -86.76233 3014 ft 99 kts 342°
2026-04-21 00:36 34.40106 -86.76451 3014 ft 99 kts 342°
2026-04-21 00:36 34.40769 -86.76668 3011 ft 98 kts 342°
2026-04-21 00:36 34.41425 -86.76880 2997 ft 94 kts 342°
2026-04-21 00:36 34.42037 -86.77067 3055 ft 83 kts 341°
2026-04-21 00:37 34.42576 -86.77258 3026 ft 88 kts 347°
2026-04-21 00:37 34.43219 -86.77283 2984 ft 92 kts
2026-04-21 00:37 34.43853 -86.77200 2920 ft 99 kts
2026-04-21 00:37 34.44474 -86.77024 2982 ft 90 kts 11°
2026-04-21 00:38 34.45085 -86.76843 2937 ft 92 kts
2026-04-21 00:38 34.45726 -86.76779 2928 ft 90 kts 354°
2026-04-21 00:38 34.46342 -86.76866 2891 ft 92 kts 349°
2026-04-21 00:38 34.47017 -86.76986 2774 ft 101 kts 349°
2026-04-21 00:39 34.47710 -86.77041 2767 ft 98 kts 357°
2026-04-21 00:39 34.48386 -86.76979 2753 ft 97 kts
2026-04-21 00:39 34.49061 -86.76916 2746 ft 94 kts 359°
2026-04-21 00:39 34.49717 -86.76883 2706 ft 97 kts 358°
2026-04-21 00:40 34.50375 -86.76864 2739 ft 93 kts 357°
2026-04-21 00:40 34.51034 -86.76882 2744 ft 93 kts 353°
2026-04-21 00:40 34.51676 -86.76916 2736 ft 96 kts 353°
2026-04-21 00:40 34.52354 -86.76940 2674 ft 102 kts 356°
2026-04-21 00:41 34.53079 -86.76939 2568 ft 106 kts 356°
2026-04-21 00:41 34.53778 -86.76923 2440 ft 101 kts
2026-04-21 00:41 34.54486 -86.76821 2285 ft 99 kts
2026-04-21 00:41 34.55162 -86.76768 2115 ft 100 kts 358°
2026-04-21 00:42 34.55846 -86.76793 1979 ft 97 kts 352°
2026-04-21 00:42 34.56531 -86.76801 1823 ft 99 kts
2026-04-21 00:42 34.57213 -86.76740 1685 ft 98 kts 358°
2026-04-21 00:42 34.57908 -86.76730 1515 ft 99 kts 358°
2026-04-21 00:43 34.58596 -86.76703 1384 ft 99 kts 360°
2026-04-21 00:43 34.59279 -86.76673 1272 ft 98 kts 359°
2026-04-21 00:43 34.59957 -86.76646 1140 ft 98 kts
2026-04-21 00:43 34.60609 -86.76620 1057 ft 86 kts 356°
2026-04-21 00:44 34.61199 -86.76636 916 ft 82 kts 357°
2026-04-21 00:44 34.61764 -86.76622 793 ft 80 kts 357°
2026-04-21 00:44 34.62330 -86.76611 670 ft 82 kts 358°
2026-04-21 00:45 34.63275 -86.76594 603 ft 45 kts
2026-04-21 00:45 34.63444 -86.76640 604 ft 19 kts 269°
2026-04-21 00:45 34.63451 -86.76707 618 ft 0 kts 317°
2026-04-21 00:46 34.63515 -86.76731 603 ft 16 kts
2026-04-21 00:47 34.63643 -86.76729 601 ft 20 kts 360°
2026-04-21 00:47 34.63793 -86.76727 602 ft 23 kts 359°
2026-04-21 00:47 34.63963 -86.76724 598 ft 26 kts
2026-04-21 00:47 34.64145 -86.76720 600 ft 26 kts
2026-04-21 00:48 34.64322 -86.76717 603 ft 25 kts
2026-04-21 00:48 34.64487 -86.76714 606 ft 20 kts 359°
2026-04-21 00:48 34.64615 -86.76710 612 ft 17 kts
2026-04-21 00:48 34.64728 -86.76709 613 ft 16 kts
2026-04-21 00:49 34.64824 -86.76732 612 ft 14 kts 304°
2026-04-21 00:49 34.64857 -86.76816 614 ft 8 kts 330°
2026-04-21 00:49 34.64875 -86.76874 613 ft 5 kts 299°
2026-04-21 00:49 34.64904 -86.76880 613 ft 5 kts 21°
2026-04-21 00:50 34.64969 -86.76881 613 ft 10 kts 357°
2026-04-21 00:50 34.65006 -86.76879 613 ft 1 kts 39°
2026-04-21 00:50 34.65013 -86.76863 614 ft 0 kts 106°